Temp
13 13 14 14 15 15 16 17 18 17 15 15 16 17 16 15 15 15 15 15 14 14 13 12 12 12 11 10 10 9 9 8
13 12 13 14 15 16 17 17 17 16 16 16 17 16 15 15 15 15 14 13 13 12 12 11 11 11 11 11 10 9 9 7
13 13 14 15 15 17 17 17 16 16 16 16 16 16 15 14 14 13 12 12 11 11 11 11 10 10 9 9 9 9 8 6
15 14 14 14 15 17 16 16 16 16 16 16 16 15 14 13 12 11 11 11 11 11 11 10 10 10 9 8 7 7 8 6
15 14 14 14 16 16 16 15 15 15 15 15 14 13 12 11 11 11 11 11 11 11 10 10 9 8 7 6 6 5 6 6
16 15 15 14 15 15 15 15 14 13 13 13 13 12 12 12 11 11 10 10 10 10 10 9 8 7 6 5 5 5 4 5
16 15 14 13 14 14 14 14 12 12 12 11 11 10 9 9 9 9 9 10 10 10 9 8 7 6 5 5 5 4 4 3
15 15 15 12 12 12 11 11 10 10 10 10 10 10 9 9 9 8 8 8 8 8 8 7 5 5 5 4 4 4 3 3
15 13 12 11 10 10 10 9 9 10 10 10 10 10 9 9 8 7 7 6 6 7 6 5 4 4 4 3 3 3 3 3
14 12 11 10 10 9 10 11 10 10 10 9 9 9 8 8 7 7 6 6 6 6 5 4 4 4 3 3 3 3 2 2
12 11 10 9 9 8 9 9 10 9 9 9 9 8 8 8 7 6 6 6 5 4 4 4 5 4 3 3 3 2 3 2
11 10 9 8 8 8 10 10 9 9 9 9 8 8 7 7 6 5 5 5 4 4 4 4 4 3 3 3 3 3 3 1
11 9 9 8 8 8 10 9 9 9 8 8 7 7 6 5 5 4 4 3 3 3 3 3 2 3 3 4 3 3 2 1
10 9 9 9 8 10 10 10 9 8 7 7 7 6 5 4 4 3 3 2 2 1 2 2 2 2 3 3 2 1 1 -0
10 10 9 9 9 10 10 9 8 8 7 7 6 5 4 4 3 3 2 2 1 2 2 2 2 2 3 2 1 -0 -1 -1
10 9 9 9 8 9 9 8 8 7 7 6 5 5 4 4 3 3 2 2 2 2 2 2 2 2 1 0 -1 -1 -2 -2
10 9 9 8 8 8 9 8 7 7 6 5 5 4 4 4 3 2 2 2 2 1 1 2 1 0 -1 -1 -1 -3 -4 -4
10 9 9 9 8 9 8 8 7 7 6 5 5 4 4 3 3 1 1 1 1 1 1 0 -1 -1 -1 -2 -2 -4 -5 -5
10 10 9 8 8 9 8 8 7 6 5 5 5 5 4 3 3 1 1 1 0 0 0 0 -0 -2 -2 -3 -3 -5 -6 -6
Height
840 840 844 847 850 853 858 863 864 864 866 867 869 867 868 869 869 867 867 868 868 866 865 865 864 863 861 860 859 856 854 852
842 843 845 847 851 854 858 861 863 864 865 867 867 867 867 867 866 866 867 866 866 866 866 866 864 862 860 858 856 854 852 850
843 843 845 846 850 853 856 859 862 864 865 866 866 866 866 866 866 867 867 867 867 867 866 865 863 861 859 857 855 853 851 849
845 846 847 847 851 854 857 860 864 866 866 866 866 866 867 868 869 869 868 868 867 866 865 863 861 859 856 854 854 853 851 850
847 849 849 850 854 857 860 862 865 865 866 867 867 867 869 869 869 869 869 868 866 864 862 860 857 856 854 854 853 851 850 850
848 850 850 851 853 858 859 861 864 866 867 868 868 870 871 871 871 870 868 866 863 860 858 856 854 853 852 851 851 851 851 850
847 850 852 853 854 858 858 860 864 866 868 869 870 872 873 873 871 869 866 862 859 856 853 851 850 850 850 849 849 849 848 847
848 849 851 854 854 858 859 861 865 868 870 872 872 872 872 871 870 867 863 859 855 851 849 847 847 848 848 849 848 847 848 845
848 850 851 852 854 858 860 863 865 868 870 871 872 872 871 869 867 864 859 855 850 846 844 845 846 847 847 846 848 845 844 844
847 850 853 856 857 859 859 861 864 868 869 870 870 870 868 866 863 860 856 852 847 844 842 844 844 845 844 845 844 843 843 841
848 852 855 857 858 861 862 864 865 866 867 867 867 866 865 863 861 858 854 850 846 844 844 844 845 843 842 841 841 841 840 839
848 852 855 856 858 860 860 862 865 865 866 866 866 864 863 862 859 856 853 849 846 845 844 843 842 841 841 839 838 838 837 835
847 851 854 856 858 858 857 862 864 863 864 864 864 863 862 860 857 854 852 849 846 845 844 842 840 838 836 836 835 834 833 831
846 850 852 854 855 854 857 859 861 862 862 863 862 861 860 858 855 852 849 847 845 843 841 839 837 836 834 833 832 832 830 829
843 847 849 850 850 853 856 857 859 861 861 860 860 859 857 855 852 849 846 844 841 840 839 837 835 833 831 830 830 829 828 826
839 842 844 845 847 850 853 856 857 858 858 858 857 856 854 852 849 846 843 840 839 837 836 834 832 831 829 828 827 826 825 823
835 838 840 843 846 849 850 853 854 855 855 854 854 853 851 849 846 843 840 838 836 835 833 831 829 829 830 826 825 824 822 819
829 831 835 839 842 845 847 850 851 851 851 850 849 848 847 845 843 839 837 835 833 831 830 828 828 826 827 825 822 821 819 816
823 827 831 835 839 842 844 846 847 847 847 846 845 844 842 841 838 836 833 831 829 827 826 825 824 824 824 822 820 818 817 814
Wind_Speed
10 13 16 20 24 27 25 16 13 10 7 4 9 8 5 4 7 6 5 5 4 4 3 2 3 4 6 7 8 8 7 10
13 17 21 24 27 28 22 18 11 9 15 17 11 5 2 3 3 3 3 3 4 4 5 7 9 11 13 13 11 10 9 12
14 18 22 24 27 24 20 16 18 19 19 11 4 4 4 3 1 3 4 4 5 7 11 15 14 12 11 9 7 6 6 8
13 17 17 18 20 20 21 21 22 12 7 7 6 5 4 1 2 3 6 11 13 14 17 15 14 13 7 3 4 6 8 7
14 13 15 19 21 20 19 17 11 8 5 4 4 4 4 5 5 5 9 12 14 16 16 16 13 7 2 1 4 7 8 9
14 19 20 19 20 15 15 13 10 8 9 11 12 13 12 10 7 9 13 15 18 19 18 18 13 5 2 1 3 4 6 6
12 12 13 15 16 15 16 15 16 17 19 19 17 13 10 10 12 14 16 21 23 21 20 17 9 7 3 1 3 3 2 2
7 10 10 10 15 17 21 22 21 18 14 12 11 11 12 13 14 15 19 19 20 20 20 13 9 5 0 3 2 3 3 4
7 7 10 14 18 20 21 19 18 16 14 13 12 12 12 13 15 17 19 19 20 21 12 11 7 2 0 3 6 7 7 7
8 11 13 15 18 18 20 19 18 14 11 10 10 12 15 17 20 22 22 22 18 12 8 9 3 1 11 7 8 9 8 10
10 12 13 13 16 17 17 15 14 11 9 10 11 13 16 20 22 23 22 20 15 6 9 5 7 12 7 10 9 10 12 11
11 12 12 15 16 16 16 12 8 8 8 8 10 13 16 18 20 20 19 16 12 6 9 8 15 7 10 8 9 10 12 12
13 15 16 16 15 14 12 8 5 5 5 7 8 11 13 16 18 18 16 13 10 7 9 11 12 14 7 9 11 10 13 10
12 15 15 15 13 11 8 4 1 1 4 5 7 9 13 15 17 18 16 13 11 13 14 14 10 11 9 12 12 11 10 9
12 12 14 13 12 11 6 6 4 3 4 6 7 9 13 15 18 18 16 13 12 10 12 13 13 8 11 9 8 8 9 11
11 12 16 16 14 11 9 6 5 6 8 9 9 11 14 16 20 20 16 13 9 12 12 8 9 9 6 4 6 8 12 15
12 15 18 13 12 11 10 8 6 8 11 12 12 12 15 17 21 20 16 14 11 12 13 9 6 5 7 6 9 9 12 13
13 16 19 19 16 14 10 7 7 11 13 15 14 15 17 17 21 19 14 14 13 12 11 7 5 2 6 10 14 10 11 13
13 17 17 18 16 13 11 8 11 14 16 16 16 17 17 17 20 16 14 14 13 11 9 6 4 3 7 12 16 11 11 12
Wind_Direction
88 106 129 136 140 143 146 157 179 228 245 165 139 141 148 117 115 96 69 43 18 17 51 40 360 349 3 2 358 3 357 342
108 120 135 137 144 149 159 175 189 169 157 161 175 207 169 144 80 25 360 360 15 35 37 15 5 356 347 338 332 337 337 346
124 129 141 148 154 157 168 174 161 159 162 187 216 193 185 174 26 356 9 18 36 35 15 351 341 330 320 319 337 340 347 3
137 148 152 152 157 159 156 156 160 176 179 146 131 133 153 232 343 358 23 15 358 344 338 328 319 315 293 308 8 3 347 358
134 136 134 140 143 146 148 147 148 136 131 111 88 63 46 22 18 20 2 356 347 337 331 328 322 293 218 57 16 16 6 345
144 153 156 145 140 134 130 128 122 95 77 65 62 55 44 24 347 315 315 329 335 333 328 319 303 238 214 24 31 20 17 0
158 142 134 129 131 137 128 119 100 96 95 87 76 61 31 3 342 329 320 316 315 309 309 302 248 216 223 132 79 37 40 6
172 158 146 135 126 126 116 111 101 98 88 72 57 43 25 9 350 330 318 312 309 307 304 276 201 193 322 324 307 331 298 313
180 148 132 126 125 123 119 108 102 96 86 72 57 39 21 6 354 343 330 319 311 307 285 204 161 323 87 299 277 300 301 300
155 132 126 128 128 129 122 117 112 102 87 71 50 31 18 8 358 351 343 337 328 315 204 172 233 209 318 295 305 303 300 292
144 138 135 134 128 126 120 113 111 103 79 55 39 24 11 0 353 350 348 343 335 290 194 220 309 322 313 295 301 290 296 296
149 140 138 136 136 137 126 111 111 89 56 36 23 13 1 352 348 345 344 344 331 264 232 284 323 286 286 290 287 296 297 293
148 147 145 144 145 144 121 125 98 65 35 22 8 359 350 346 343 339 334 330 316 299 299 294 301 295 280 283 282 290 304 283
155 156 155 152 154 138 137 139 165 5 6 341 338 340 342 342 339 336 328 317 303 302 315 300 299 293 296 292 283 289 297 293
166 166 167 170 165 166 181 200 208 283 296 309 310 325 335 338 337 334 328 319 318 310 312 309 297 295 300 292 292 298 300 298
178 179 186 189 187 186 202 206 235 268 290 283 297 315 329 335 334 332 326 322 319 316 308 317 314 304 294 291 308 311 309 308
192 195 200 197 198 201 202 225 253 278 278 283 295 306 320 327 329 326 319 318 301 307 306 309 324 334 319 318 320 323 321 322
199 202 202 206 205 202 214 232 266 280 285 288 290 306 312 313 323 320 307 305 298 301 300 293 294 301 313 326 327 335 330 327
205 204 206 212 208 209 221 249 277 289 291 292 296 304 301 305 316 315 308 305 298 285 280 263 242 287 323 333 332 331 327 328